Date String (YYYY-MM-DD hh:mm:ss) UTC,Instrument flags,absolute air pressure of the measurement (hPa),sample flow rate (lpm),inlet stack bypass flow (lpm),air temperature of the measurement (°C),ambient temperature measured by the external sensor (°C),aerosol sample conditioner tube jacket temperature (°C),OPC LED temperature (°C),internal box temperature (°C),relative humidity of the measurement (%),span deviation,mass concentration of particles derived from Lorenz-Mie calculation of OPC scattering (μg/m³),mass concentration of particles derived from Lorenz-Mie calculation of OPC scattering (μg/m³),mass concentration of particles derived from Lorenz-Mie calculation of OPC scattering (μg/m³)
DateTimeUTC,F1_M11,P_M11,Q1_M11,Q2_M11,T1_M11,T2_M11,T3_M11,T4_M11,T5_M11,U1_M11,ZSPAN_M11,X0_M11,X2_M11,X1_M11
2024-06-14 09:00:00,SystemResetWarning,0834.0,5.00,000.00,029.9,029.4,000.0,038.1,031.7,033.5,0000.0,0032.78,0008.11,0005.20
2024-06-14 09:01:00,SystemResetWarning,0834.0,5.00,000.00,030.0,029.5,000.0,038.1,031.8,033.4,0000.0,0033.32,0008.16,0005.21
2024-06-14 09:02:00,SystemResetWarning,0833.9,5.00,000.00,030.0,029.5,000.0,038.2,031.8,033.3,0000.0,0034.32,0008.14,0005.22
2024-06-14 09:03:00,SystemResetWarning,0833.9,5.00,000.00,030.1,029.6,000.0,038.2,031.9,033.2,0000.0,0033.35,0008.09,0005.23
2024-06-14 09:04:00,SystemResetWarning,0833.9,4.99,000.00,030.1,029.7,000.0,038.2,031.9,033.1,0000.0,0034.40,0008.11,0005.25
2024-06-14 09:05:00,SystemResetWarning,0833.9,5.01,000.00,030.2,029.7,000.0,038.3,032.0,033.1,0000.0,0033.56,0008.17,0005.28
2024-06-14 09:06:00,SystemResetWarning,0833.9,5.01,000.00,030.2,029.8,000.0,038.3,032.0,033.0,0000.0,0033.30,0008.16,0005.30
2024-06-14 09:07:00,SystemResetWarning,0833.9,4.99,000.00,030.3,029.8,000.0,038.3,032.0,032.9,0000.0,0033.87,0008.22,0005.33
2024-06-14 09:08:00,SystemResetWarning,0833.9,5.00,000.00,030.3,029.9,000.0,038.4,032.1,032.8,0000.0,0033.97,0008.26,0005.35
2024-06-14 09:09:00,SystemResetWarning,0833.8,4.99,000.00,030.3,029.9,000.0,038.4,032.1,032.7,0000.0,0034.47,0008.33,0005.38
2024-06-14 09:10:00,SystemResetWarning,0833.9,4.99,000.00,030.4,029.9,000.0,038.5,032.1,032.6,0000.0,0033.29,0008.33,0005.41
2024-06-14 09:11:00,SystemResetWarning,0833.8,5.00,000.00,030.3,028.5,000.0,038.5,031.5,032.8,0000.0,0032.42,0008.27,0005.44
2024-06-14 09:12:00,SystemResetWarning,0833.7,5.01,000.00,029.9,026.6,000.0,038.5,030.6,033.5,0000.5,0030.90,0008.24,0005.46
2024-06-14 09:13:00,SystemResetWarning,0833.8,5.01,000.00,029.6,026.5,000.0,038.5,030.4,034.1,0000.0,0028.34,0008.28,0005.48
2024-06-14 09:14:00,SystemResetWarning,0833.8,4.98,000.00,029.5,026.9,000.0,038.4,030.6,034.3,0000.0,0029.96,0008.29,0005.51
2024-06-14 09:15:00,SystemResetWarning,0833.8,5.00,000.00,029.5,027.3,000.0,038.3,030.8,034.3,0000.0,0032.11,0008.35,0005.52
2024-06-14 09:16:00,SystemResetWarning,0833.9,5.02,000.00,029.5,027.7,000.0,038.2,031.0,034.2,0000.0,0033.50,0008.40,0005.52
2024-06-14 09:17:00,SystemResetWarning,0833.8,5.00,000.00,029.6,028.1,000.0,038.1,031.2,034.2,0000.0,0033.08,0008.44,0005.53
2024-06-14 09:18:00,SystemResetWarning,0833.8,4.99,000.00,029.6,028.3,000.0,038.1,031.3,034.1,0000.0,0034.14,0008.39,0005.54
2024-06-14 09:19:00,SystemResetWarning,0833.8,5.00,000.00,029.7,028.6,000.0,038.1,031.4,034.0,0000.0,0036.66,0008.42,0005.55
2024-06-14 09:20:00,SystemResetWarning,0833.8,5.00,000.00,029.7,028.8,000.0,038.1,031.4,034.0,0000.0,0036.79,0008.47,0005.56
2024-06-14 09:21:00,SystemResetWarning,0833.8,5.00,000.00,029.8,028.9,000.0,038.1,031.5,033.8,0000.0,0038.23,0008.60,0005.57
2024-06-14 09:22:00,SystemResetWarning,0833.8,5.00,000.00,029.8,029.1,000.0,038.1,031.6,033.7,0000.0,0038.39,0008.63,0005.57
2024-06-14 09:23:00,SystemResetWarning,0833.8,5.01,000.00,029.9,029.2,000.0,038.1,031.7,033.7,0000.0,0039.87,0008.72,0005.58
2024-06-14 09:24:00,SystemResetWarning,0833.8,4.99,000.00,029.9,029.3,000.0,038.2,031.7,033.6,0000.0,0040.52,0008.67,0005.57
2024-06-14 09:25:00,SystemResetWarning,0833.8,4.99,000.00,030.0,029.4,000.0,038.2,031.8,033.5,0000.0,0039.45,0008.67,0005.57
2024-06-14 09:26:00,SystemResetWarning,0833.8,4.99,000.00,030.0,029.5,000.0,038.2,031.8,033.4,0000.0,0037.89,0008.58,0005.56
2024-06-14 09:27:00,SystemResetWarning,0833.8,5.00,000.00,030.1,029.5,000.0,038.2,031.9,033.3,0000.0,0037.21,0008.57,0005.57
2024-06-14 09:28:00,SystemResetWarning,0833.8,5.01,000.00,030.1,029.6,000.0,038.3,031.9,033.3,0002.0,0038.08,0008.54,0005.57
2024-06-14 09:29:00,SystemResetWarning,0833.7,5.00,000.00,030.2,029.7,000.0,038.3,032.0,033.2,0002.7,0038.39,0008.50,0005.56
2024-06-14 09:30:00,SystemResetWarning,0833.7,5.00,000.00,030.2,029.7,000.0,038.3,032.0,033.1,0003.1,0035.77,0008.48,0005.56
2024-06-14 09:31:00,SystemResetWarning,0833.7,5.01,000.00,030.2,029.8,000.0,038.4,032.0,033.0,0002.7,0035.12,0008.36,0005.56
2024-06-14 09:32:00,SystemResetWarning,0833.7,5.00,000.00,030.3,029.8,000.0,038.4,032.1,033.0,0003.5,0033.79,0008.25,0005.57
2024-06-14 09:33:00,SystemResetWarning,0833.7,5.01,000.00,030.3,029.9,000.0,038.4,032.1,033.0,0001.9,0033.53,0008.21,0005.57
2024-06-14 09:34:00,SystemResetWarning,0833.7,5.00,000.00,030.4,029.9,000.0,038.5,032.1,033.0,0000.6,0032.62,0008.14,0005.57
2024-06-14 09:35:00,SystemResetWarning,0833.7,5.00,000.00,030.4,029.9,000.0,038.5,032.2,032.9,0000.0,0032.62,0008.14,0005.58
2024-06-14 09:36:00,SystemResetWarning,0833.7,5.00,000.00,030.4,030.0,000.0,038.6,032.2,032.8,0000.0,0033.31,0008.13,0005.59
2024-06-14 09:37:00,SystemResetWarning,0833.7,5.00,000.00,030.5,030.0,000.0,038.6,032.3,032.8,0000.0,0033.39,0008.18,0005.60
2024-06-14 09:38:00,SystemResetWarning,0833.7,5.00,000.00,030.5,030.1,000.0,038.6,032.3,032.7,0000.0,0033.05,0008.17,0005.59
2024-06-14 09:39:00,SystemResetWarning,0833.7,4.98,000.00,030.5,029.2,000.0,038.7,031.9,032.7,0000.0,0034.77,0008.25,0005.61
2024-06-14 09:40:00,SystemResetWarning,0833.5,5.00,000.00,030.1,026.9,000.0,038.7,030.8,033.4,0000.0,0035.00,0008.33,0005.64
2024-06-14 09:41:00,SystemResetWarning,0833.5,5.01,000.00,029.8,026.4,000.0,038.7,030.5,034.1,0000.0,0036.30,0008.32,0005.65
2024-06-14 09:42:00,SystemResetWarning,0833.5,5.00,000.00,029.6,026.7,000.0,038.5,030.5,034.5,0000.0,0037.56,0008.34,0005.65
2024-06-14 09:43:00,SystemResetWarning,0833.5,4.99,000.00,029.6,027.2,000.0,038.4,030.8,034.8,0000.0,0036.70,0008.33,0005.65
2024-06-14 09:44:00,SystemResetWarning,0833.5,5.01,000.00,029.6,027.6,000.0,038.3,031.0,034.6,0000.0,0038.32,0008.46,0005.66
2024-06-14 09:45:00,SystemResetWarning,0833.4,5.01,000.00,029.6,027.9,000.0,038.3,031.2,034.5,0000.0,0038.02,0008.53,0005.67
2024-06-14 09:46:00,SystemResetWarning,0833.4,5.00,000.00,029.7,028.2,000.0,038.3,031.3,034.4,0000.0,0038.25,0008.53,0005.68
2024-06-14 09:47:00,SystemResetWarning,0833.4,5.00,000.00,029.7,028.5,000.0,038.2,031.4,034.3,0000.0,0037.30,0008.44,0005.69
2024-06-14 09:48:00,SystemResetWarning,0833.4,5.00,000.00,029.7,028.7,000.0,038.2,031.5,034.3,0000.0,0036.05,0008.40,0005.72
2024-06-14 09:49:00,SystemResetWarning,0833.5,5.00,000.00,029.8,028.9,000.0,038.2,031.5,034.2,0000.0,0035.07,0008.38,0005.75
2024-06-14 09:50:00,SystemResetWarning,0833.5,5.00,000.00,029.8,029.0,000.0,038.2,031.6,034.1,0000.0,0034.89,0008.32,0005.76
2024-06-14 09:51:00,SystemResetWarning,0833.5,4.99,000.00,029.9,029.2,000.0,038.2,031.7,034.0,0000.0,0034.31,0008.30,0005.75
2024-06-14 09:52:00,SystemResetWarning,0833.5,4.99,000.00,029.9,029.3,000.0,038.2,031.7,034.0,0000.0,0033.64,0008.34,0005.75
2024-06-14 09:53:00,SystemResetWarning,0833.5,5.00,000.00,030.0,029.4,000.0,038.2,031.8,033.9,0000.0,0031.75,0008.34,0005.76
2024-06-14 09:54:00,SystemResetWarning,0833.5,5.00,000.00,030.0,029.5,000.0,038.3,031.8,033.8,0000.0,0032.73,0008.46,0005.79
2024-06-14 09:55:00,SystemResetWarning,0833.5,5.01,000.00,030.1,029.5,000.0,038.3,031.9,033.8,0000.0,0032.57,0008.47,0005.80
2024-06-14 09:56:00,SystemResetWarning,0833.4,5.01,000.00,030.1,029.6,000.0,038.3,031.9,033.7,0000.0,0032.82,0008.43,0005.81
2024-06-14 09:57:00,SystemResetWarning,0833.4,5.00,000.00,030.2,029.7,000.0,038.4,032.0,033.6,0000.0,0032.28,0008.43,0005.83
2024-06-14 09:58:00,SystemResetWarning,0833.4,5.00,000.00,030.2,029.7,000.0,038.4,032.0,033.5,0000.0,0032.95,0008.47,0005.84
2024-06-14 09:59:00,SystemResetWarning,0833.4,4.99,000.00,030.3,029.8,000.0,038.4,032.0,033.4,0000.0,0034.06,0008.55,0005.85
